sat.trackr.live / text

‹ back to catalog

STARLINK-35621

NORAD 66156 · 2025-240L

PAYLOAD ACTIVE UNKNOWN

§ Identity

Operator
Country
US
Launch date
2025-10-25
Launch site
AFWTR
Launch vehicle
Mass (kg)
RCS (m²)

Purposes: comms

External: N2YO · Heavens-Above · Gunter

§ Orbital elements

Epoch: 2026-09-20T11:01:42.134016Z

Period
93.85 min
Inclination
53.1579°
Eccentricity
0.0001462
Mean motion
15.34403018 rev/d
Perigee alt
461.7 km
Apogee alt
463.7 km
Semi-major
6,840.8 km
B*
3.4803e-4
RAAN
235.6436°
Arg perigee
92.7219°
Mean anomaly
267.3951°
Rev number
5,183

§ Raw data

STARLINK-356211 66156U 25240L   26263.45951544  .00011401  00000+0  34803-3 0  99902 66156  53.1579 235.6436 0001462  92.7219 267.3951 15.34403018 51837

JSON: /api/v1/satellites/66156 · /tle

For live sub-satellite position, see the globe view (requires WebGL).

§ Visibility from observer

Set your observer location to see the next 7 days of passes ≥ 10°. The values pass through the URL so the page stays shareable.

No JS? Fill the form by hand. The geolocation button needs JavaScript.